{"data":{"norad_id":85238,"intl_designator":"","name":"UNKNOWN","alt_names":[],"object_type":"UNKNOWN","status":"UNKNOWN","operator":null,"country":null,"launch_date":null,"launch_site_code":null,"launch_vehicle":null,"mission":null,"orbit_class":"UNKNOWN","rcs_meters":null,"size_class":null,"mass_kg":null,"dimensions":null,"purposes":[],"wikipedia_slug":null,"has_3d_model":false,"image_url":null,"decayed_at":null,"tle_current":{"epoch":"2026-05-22T13:32:05.695584Z","epoch_age_seconds":282840,"freshness":"STALE","line1":"1 85238U          26142.56395481  .00000028  00000+0  58028-4 0  9998","line2":"2 85238  99.0729  72.2468 0064105 125.2905  52.7153 13.88371715633158","mean_motion":13.88371715,"eccentricity":0.0064105,"inclination_deg":99.0729,"raan_deg":72.2468,"arg_perigee_deg":125.2905,"mean_anomaly_deg":52.7153,"bstar":5.8028e-5,"rev_number":63315,"period_min":103.71862120513,"perigee_km":887.46598751207,"apogee_km":981.21928895386,"semimajor_km":7312.479638233,"source":"CELESTRAK","updated_at":"2026-05-25T13:38:11.432196Z"}}}